Overview Statistics Trail Chart Weather Telemetry Raw packets
 

This is the latest recevied weather packets stored in our database for station/object KC9DRE. If no packets are shown the sender has not sent any weather packets the latest 10 day(s).

<< 85 86 87 88 89 90 91 >>
Time Temp. Humidity Pressure Rain* Wind** Luminosity Snow
1777274949 12.22° C 85% 1016.2 hPa 0 mm - 0 W/m² -
1777274646 12.22° C 85% 1016.2 hPa 0 mm - 0 W/m² -
1777274343 12.78° C 85% 1016.2 hPa 0 mm - 0 W/m² -
1777274037 12.78° C 84% 1016.2 hPa 0 mm - 0 W/m² -
1777273734 12.78° C 84% 1016.2 hPa 0 mm - 0 W/m² -
1777273433 12.78° C 83% 1016.1 hPa 0 mm - 0 W/m² -
1777273130 13.33° C 83% 1016.5 hPa 0 mm - 0 W/m² -
1777272827 13.33° C 83% 1016.4 hPa 0 mm - 0 W/m² -
1777272524 13.33° C 82% 1016.1 hPa 0 mm - 0 W/m² -
1777272223 13.33° C 83% 1015.9 hPa 0 mm - 0 W/m² -
1777271918 13.33° C 83% 1016.1 hPa 0 mm - 0 W/m² -
1777271614 13.33° C 83% 1015.9 hPa 0 mm - 0 W/m² -
1777271312 13.33° C 84% 1016.1 hPa 0 mm - 0 W/m² -
1777271007 12.78° C 87% 1016.4 hPa 0 mm - 0 W/m² -
1777270703 12.22° C 91% 1016.2 hPa 0 mm - 0 W/m² -
1777270401 11.67° C 95% 1016.1 hPa 0 mm - 0 W/m² -
1777270097 11.67° C 97% 1016.4 hPa 0 mm - 0 W/m² -
1777269794 10.56° C 97% 1016.6 hPa 0 mm - 0 W/m² -
1777269490 10.56° C 98% 1016.5 hPa 0 mm - 0 W/m² -
1777269189 10° C 97% 1016.4 hPa 0 mm - 0 W/m² -
1777268885 10° C 97% 1016.6 hPa 0 mm - 0 W/m² -
1777268583 10° C 97% 1016.7 hPa 0 mm - 0 W/m² -
1777268278 10° C 97% 1016.5 hPa 0 mm - 0 W/m² -
1777267975 10° C 97% 1016.6 hPa 0 mm - 0 W/m² -
1777267672 9.44° C 97% 1016.7 hPa 0 mm - 0 W/m² -

* Rain latest hour (hover to see other rain measurements)
** Current wind speed in m/s (hover to see current wind gust speed)